Location: Carbonear
(47.7333°N, 53.2500°W)
Time: 02:01:10
(UTC+00:00)

XW-2F - Pass Details

Date: 08 December 2022
Orbit: 471 x 485 km, 97.5° (Epoch: 08 February)

Event Time Altitude Azimuth Distance (km) Brightness Sun altitude
Rises 20:13:04 0° 135° (SE) 2,516 ? -5.4°
Maximum altitude 20:18:13 23° 67° (ENE) 1,041 ? -6.2°
Drops below altitude 10° 20:21:04 10° 13° (NNE) 1,647 ? -6.6°
Sets 20:23:24 0° 359° (N) 2,530 ? -7.0°
